Temp
4 3 3 3 3 2 2 1 0 2 1 1 0 1 3 5 5 5 5 5 5 5 6 5 6 6 7 4 4 4 3 3 1 5 7 7 5 4 3 4 4 5 5 6
2 2 2 2 2 2 2 -0 -0 1 1 1 0 1 3 4 4 5 4 4 5 5 4 3 5 5 4 3 4 3 3 2 2 5 5 4 4 4 4 3 3 5 5 4
2 1 1 1 1 2 1 0 0 -0 1 0 0 2 3 3 4 4 4 3 3 2 2 3 2 3 4 4 4 5 4 3 2 2 3 4 3 5 5 4 3 5 4 4
1 1 1 1 1 0 1 -0 -1 0 1 0 0 2 2 3 2 2 3 2 3 2 1 2 3 3 3 4 4 4 3 2 2 3 4 4 4 4 4 4 5 3 5 6
-0 -0 0 2 0 0 1 -1 -1 -0 2 2 1 1 0 2 2 1 -0 0 2 1 1 3 2 2 2 2 2 1 1 0 0 -1 3 3 3 3 4 4 5 5 5 6
-0 -0 -0 -0 0 0 -0 0 1 3 1 1 1 -0 1 2 2 1 2 1 -1 -1 -0 2 2 0 0 1 2 2 -0 -2 -2 -1 3 2 0 4 4 5 5 6 5 6
-1 -1 -0 -0 -0 -0 0 1 1 1 -0 1 1 2 1 1 1 -0 1 1 0 2 2 1 0 -0 -0 0 1 2 0 -0 -2 -1 1 -4 3 4 4 3 4 3 3 3
-0 -0 -1 -1 -1 -0 -1 -0 1 -0 -0 1 0 0 1 1 2 1 1 1 2 2 1 -1 -1 -2 -0 1 0 -0 -0 -0 -3 -1 -0 1 3 2 2 2 3 2 1 3
-0 -1 -0 -1 -1 -1 -1 -1 -1 1 -1 -0 1 0 1 -1 -1 -0 1 2 2 2 -0 -3 -3 -2 1 1 2 -0 -0 0 -1 -3 -2 -1 2 1 2 2 2 2 2 2
-1 -1 -1 -0 -1 -1 -1 -1 -1 -1 -2 -1 0 -1 -0 1 -0 -1 0 0 0 2 -6 -8 -5 -1 1 -0 1 1 -3 -3 -1 -1 -2 0 1 2 3 1 1 -0 0 2
-1 -1 -1 -1 -1 -2 -2 -2 -2 -1 -1 -1 0 1 1 1 1 -1 0 0 -1 -4 -5 -4 -7 -6 -3 -1 1 1 1 -4 -4 -6 -6 -3 2 2 1 2 3 2 1 2
-1 -1 -1 -1 -1 -1 -2 -2 -2 -1 -0 -1 -1 0 1 1 1 2 0 1 -1 -1 -6 -8 -8 -6 -6 -4 -3 0 -1 -1 -3 -3 -3 1 2 2 4 3 1 2 2 2
-1 -1 -1 -1 -2 -1 -2 -2 -1 -1 -1 -1 -1 -0 0 0 1 1 1 -0 1 1 1 -5 -6 -3 -4 -3 -3 -0 -0 0 -1 -0 2 1 2 3 3 3 3 2 3 2
-1 -1 -1 -1 -2 -2 -2 -2 -1 -1 -2 -4 -1 0 1 1 0 0 1 2 1 2 1 -2 -5 -3 -2 -3 -1 -2 -1 -0 -0 -0 1 1 2 3 3 3 3 3 2 2
-1 -1 -1 -1 -2 -2 -2 -2 -1 -1 -0 -3 -1 -0 0 1 0 1 1 1 2 1 -2 -6 -4 -2 -3 -4 -3 -2 -0 1 -1 -0 2 2 2 3 3 2 2 2 2 2
-1 -1 -1 -2 -2 -2 -2 -2 -3 -2 -1 -0 -4 0 1 1 1 1 1 1 1 1 0 -3 -1 1 -1 -4 -3 2 2 2 1 1 2 2 2 3 2 2 2 2 2 1
-1 -1 -2 -2 -2 -2 -2 -1 -1 -2 -1 -1 -4 -4 -0 0 1 0 0 0 0 0 0 -4 -1 -1 -1 -6 -2 1 2 2 2 1 1 0 1 0 1 2 2 2 1 1
-1 -1 -2 -2 -2 -2 -2 -0 -1 -1 -1 -1 -6 -3 -2 -0 -0 -1 -1 -0 -0 -0 -0 -2 -3 -1 -2 -2 1 2 1 -1 -1 -1 -1 0 1 1 1 2 2 1 1 1
-1 -1 -2 -3 -3 -2 -2 -2 -2 -1 -1 -3 -3 -3 -4 -0 -2 -2 -2 -2 -2 -1 -2 -1 -1 -2 -1 1 1 0 -0 -1 -1 -1 0 0 -0 0 0 0 1 0 0 -0
-2 -2 -2 -3 -2 -2 -2 -2 -2 -2 -1 -2 -4 -2 -3 -1 -4 -5 -5 -2 -1 -2 -2 -2 -2 -0 1 0 -1 -2 -2 -1 -1 -1 -1 0 -0 -1 0 0 -1 -0 -1 -1
-1 -2 -2 -2 -2 -2 -2 -2 -2 -3 -3 -3 -2 -2 -3 -1 -3 -5 -3 -6 -4 -2 -2 -3 -1 -1 -1 -2 -2 -1 -1 -1 -1 -1 -1 -1 -1 -1 -1 -1 -2 -2 -2 -2
-2 -2 -2 -2 -1 -2 -3 -4 -3 -3 -2 -3 -4 -3 -1 -1 0 -4 -4 -3 -3 -3 -4 -2 -1 -2 -2 -2 -2 -1 -1 -2 -2 -2 -2 -3 -3 -2 -2 -3 -3 -3 -3 -3
-2 -1 -2 -2 -3 -6 -5 -4 -2 -3 -3 -3 -3 -4 -1 -1 -1 -4 -3 -1 -3 -2 -2 -1 -1 -1 -2 -3 -2 -3 -2 -3 -3 -3 -3 -3 -3 -3 -3 -3 -3 -4 -3 -3
-1 -2 -5 -4 -5 -4 -4 -2 -2 -1 -1 -2 -1 -3 -3 -3 -4 -4 -3 -3 -2 -1 -1 -1 -1 -2 -3 -3 -3 -3 -3 -3 -3 -4 -4 -4 -4 -4 -4 -4 -4 -4 -4 -4
-2 -1 -4 -5 -3 -3 -3 -2 -1 -0 -0 -1 -2 -3 -3 -3 -4 -2 -3 -2 -0 0 -1 -1 -2 -3 -3 -3 -3 -3 -4 -4 -4 -4 -4 -5 -5 -5 -4 -4 -4 -4 -4 -4
-1 -2 -4 -5 -6 -9 -5 -3 -1 -0 -0 -0 0 -3 -6 -4 -3 -2 -1 -0 0 -1 -1 -1 -2 -3 -3 -4 -4 -4 -4 -4 -4 -5 -5 -5 -5 -5 -5 -4 -4 -4 -4 -4
-2 -2 -3 -5 -4 -3 -2 -1 -0 -1 -1 -5 -3 -4 -2 -3 -2 -1 -1 -2 -2 -2 -2 -1 -3 -3 -3 -4 -4 -4 -5 -5 -5 -5 -5 -5 -5 -5 -5 -4 -4 -4 -4 -4
Height
1315 1324 1334 1343 1352 1363 1370 1383 1395 1402 1409 1424 1427 1429 1428 1428 1430 1434 1439 1443 1446 1454 1452 1458 1461 1458 1458 1465 1468 1472 1477 1480 1483 1461 1452 1454 1460 1471 1471 1468 1455 1447 1443 1425
1319 1328 1336 1344 1352 1360 1365 1384 1396 1403 1407 1416 1423 1424 1424 1428 1433 1435 1440 1443 1444 1451 1454 1462 1460 1458 1462 1463 1465 1469 1473 1478 1481 1462 1461 1460 1459 1462 1461 1466 1464 1447 1435 1437
1323 1331 1338 1345 1353 1360 1369 1383 1395 1402 1408 1412 1414 1415 1422 1434 1433 1434 1436 1440 1445 1454 1457 1458 1464 1462 1460 1461 1462 1463 1465 1471 1475 1475 1469 1460 1463 1457 1452 1458 1456 1441 1440 1426
1328 1336 1341 1348 1355 1361 1370 1379 1387 1390 1399 1407 1411 1415 1424 1433 1435 1434 1435 1440 1443 1450 1457 1458 1458 1460 1461 1459 1459 1462 1464 1464 1466 1465 1462 1457 1455 1454 1441 1450 1439 1446 1423 1415
1335 1340 1347 1351 1357 1363 1371 1377 1384 1392 1393 1402 1413 1418 1427 1430 1431 1431 1437 1440 1443 1446 1451 1449 1451 1454 1457 1459 1457 1459 1464 1466 1465 1471 1455 1454 1456 1448 1433 1435 1432 1428 1419 1407
1339 1343 1348 1353 1358 1363 1369 1374 1381 1387 1398 1404 1414 1417 1421 1422 1425 1429 1430 1437 1445 1449 1447 1447 1448 1450 1453 1455 1456 1457 1465 1472 1472 1469 1452 1454 1459 1435 1428 1424 1420 1416 1410 1401
1339 1344 1348 1353 1358 1362 1368 1374 1380 1388 1398 1402 1406 1411 1416 1420 1425 1430 1431 1436 1442 1442 1443 1448 1451 1450 1451 1452 1451 1455 1458 1464 1470 1469 1456 1484 1432 1428 1426 1424 1410 1408 1407 1405
1338 1342 1347 1352 1358 1363 1369 1374 1380 1387 1397 1400 1408 1413 1415 1418 1423 1427 1428 1434 1435 1436 1446 1452 1453 1456 1451 1445 1443 1449 1453 1460 1472 1466 1457 1443 1431 1431 1431 1424 1413 1410 1410 1405
1335 1340 1344 1350 1357 1361 1369 1373 1379 1384 1393 1402 1405 1410 1414 1419 1422 1426 1427 1430 1434 1437 1445 1452 1461 1456 1445 1448 1441 1443 1450 1454 1460 1468 1462 1452 1428 1428 1424 1424 1413 1409 1408 1403
1330 1337 1342 1349 1356 1361 1368 1372 1378 1385 1395 1402 1404 1409 1411 1415 1417 1422 1423 1428 1435 1433 1452 1468 1462 1452 1447 1450 1441 1441 1458 1459 1453 1453 1458 1439 1425 1422 1418 1420 1417 1408 1404 1397
1325 1333 1340 1348 1355 1360 1366 1373 1380 1386 1394 1399 1401 1405 1408 1412 1415 1418 1426 1427 1430 1435 1448 1451 1463 1459 1453 1445 1436 1436 1440 1459 1459 1467 1471 1451 1417 1416 1419 1413 1403 1402 1398 1395
1318 1327 1336 1345 1353 1360 1367 1376 1384 1390 1394 1399 1401 1403 1408 1410 1410 1415 1422 1421 1420 1420 1438 1445 1451 1453 1453 1449 1450 1433 1439 1432 1439 1437 1432 1411 1410 1409 1406 1404 1401 1395 1395 1390
1314 1323 1333 1342 1350 1360 1368 1377 1382 1387 1393 1396 1400 1404 1406 1407 1406 1415 1422 1422 1418 1418 1418 1428 1437 1443 1443 1445 1437 1428 1424 1421 1425 1423 1407 1406 1404 1403 1401 1398 1394 1391 1390 1383
1310 1320 1331 1340 1349 1359 1367 1372 1380 1388 1393 1397 1397 1396 1396 1401 1407 1414 1419 1419 1416 1416 1419 1423 1432 1435 1431 1431 1423 1422 1418 1417 1413 1412 1403 1401 1398 1396 1394 1391 1389 1386 1383 1378
1309 1319 1330 1339 1348 1358 1367 1375 1381 1388 1392 1393 1395 1395 1398 1403 1408 1413 1415 1415 1414 1416 1420 1424 1429 1426 1427 1422 1421 1407 1408 1401 1410 1401 1392 1396 1390 1389 1388 1386 1382 1380 1377 1371
1310 1320 1331 1341 1351 1356 1366 1376 1382 1387 1391 1393 1398 1398 1399 1401 1404 1409 1411 1412 1414 1416 1416 1418 1417 1419 1422 1422 1406 1382 1393 1392 1392 1387 1387 1387 1383 1381 1381 1380 1376 1374 1371 1368
1314 1322 1334 1345 1351 1358 1369 1372 1373 1383 1392 1395 1397 1397 1398 1399 1402 1405 1407 1409 1411 1413 1415 1413 1412 1414 1417 1412 1395 1364 1386 1383 1382 1382 1382 1379 1377 1374 1375 1375 1371 1369 1363 1359
1314 1326 1339 1347 1356 1363 1369 1372 1377 1387 1394 1396 1399 1397 1397 1398 1399 1402 1405 1406 1409 1409 1409 1408 1407 1408 1406 1393 1374 1373 1372 1373 1371 1370 1371 1368 1367 1369 1370 1370 1367 1364 1359 1355
1326 1334 1344 1352 1361 1367 1372 1378 1385 1390 1394 1393 1396 1397 1401 1396 1398 1400 1404 1405 1408 1407 1404 1402 1402 1398 1390 1374 1370 1367 1366 1364 1362 1363 1363 1362 1363 1363 1365 1364 1363 1360 1357 1354
1334 1344 1352 1358 1364 1370 1376 1386 1389 1392 1392 1393 1394 1393 1395 1395 1397 1401 1404 1405 1405 1404 1400 1397 1394 1382 1377 1374 1369 1360 1359 1359 1360 1360 1359 1358 1359 1362 1361 1359 1357 1354 1355 1354
1343 1349 1356 1364 1369 1374 1378 1383 1387 1390 1391 1389 1389 1390 1391 1393 1396 1399 1400 1406 1405 1402 1397 1397 1385 1380 1375 1373 1367 1361 1358 1358 1359 1359 1358 1357 1358 1358 1358 1356 1355 1354 1354 1353
1347 1352 1362 1369 1374 1376 1380 1383 1385 1386 1383 1384 1385 1387 1389 1391 1392 1395 1401 1402 1402 1400 1393 1392 1383 1377 1374 1372 1368 1365 1363 1361 1360 1358 1357 1357 1356 1356 1356 1357 1356 1355 1355 1353
1356 1362 1367 1370 1376 1383 1382 1384 1378 1381 1376 1378 1381 1386 1387 1391 1392 1395 1398 1397 1399 1392 1390 1381 1377 1375 1374 1371 1368 1366 1363 1361 1360 1360 1360 1357 1358 1358 1358 1358 1357 1356 1355 1354
1358 1361 1370 1371 1375 1372 1370 1369 1369 1370 1370 1373 1377 1382 1384 1389 1391 1394 1397 1394 1391 1387 1384 1379 1375 1376 1375 1372 1369 1368 1367 1366 1365 1364 1364 1363 1362 1362 1361 1360 1359 1359 1357 1356
1361 1361 1369 1369 1365 1365 1366 1367 1368 1369 1370 1374 1377 1381 1384 1388 1392 1391 1392 1390 1382 1377 1379 1376 1375 1375 1374 1373 1371 1370 1370 1369 1369 1368 1367 1366 1365 1364 1363 1362 1361 1360 1360 1357
1361 1361 1363 1365 1366 1367 1366 1366 1367 1369 1370 1374 1376 1381 1387 1388 1387 1387 1385 1380 1375 1374 1370 1372 1374 1374 1374 1374 1373 1372 1372 1371 1370 1369 1368 1367 1366 1365 1364 1363 1363 1362 1360 1359
1361 1361 1361 1362 1362 1362 1364 1365 1367 1368 1371 1374 1375 1381 1379 1382 1383 1379 1377 1377 1372 1370 1371 1373 1374 1374 1375 1375 1375 1375 1374 1373 1372 1371 1370 1369 1369 1367 1367 1366 1365 1364 1363 1361
Wind_Speed
45 47 44 44 47 45 40 20 4 27 33 3 2 4 5 5 5 8 4 3 3 3 2 2 2 5 3 10 6 3 3 3 4 7 11 3 4 2 2 5 6 4 5 4
35 35 40 41 42 45 38 9 7 29 31 5 4 4 4 3 3 5 4 4 3 2 3 2 3 1 6 14 7 6 5 1 3 4 2 2 2 4 3 4 6 9 4 6
35 34 36 39 41 39 36 10 4 6 14 0 6 5 4 5 8 3 5 5 6 4 3 4 3 2 4 6 6 10 11 5 5 5 7 1 7 11 11 7 5 10 9 14
32 35 34 34 36 35 27 5 3 6 7 7 4 5 6 9 4 3 8 3 5 6 5 6 7 7 3 4 7 5 6 5 7 13 15 16 16 20 21 15 20 9 20 18
15 23 29 32 34 32 17 8 7 5 8 17 6 8 6 6 4 6 3 4 6 7 7 7 5 3 5 5 0 6 3 3 2 5 15 13 17 21 22 18 21 19 24 24
19 18 27 32 27 35 11 12 14 13 12 9 8 5 6 7 6 2 10 6 4 3 8 12 13 6 5 4 5 6 5 3 3 7 2 7 6 19 20 13 15 13 13 12
17 20 22 25 34 30 16 23 18 8 3 8 12 7 7 7 9 6 3 7 5 4 7 9 1 4 6 9 8 7 5 4 3 5 6 3 8 6 10 9 12 8 9 13
23 22 22 24 26 26 29 23 15 7 3 6 7 8 6 9 14 6 6 6 6 11 9 2 1 2 1 7 8 12 8 4 2 2 4 9 13 4 7 11 15 6 11 15
28 27 23 23 25 27 29 24 21 10 5 6 10 7 8 4 4 5 5 4 9 14 2 3 3 2 1 2 2 5 6 8 5 2 3 6 3 6 11 12 13 10 15 14
30 31 28 26 25 27 30 20 23 15 7 7 12 3 8 9 5 3 5 9 8 11 2 2 3 3 2 4 4 4 3 3 11 8 5 7 4 6 12 5 6 28 25 26
32 34 33 30 30 28 24 15 12 10 4 8 9 10 7 9 8 4 6 6 0 3 3 3 3 3 4 1 3 4 7 6 4 3 3 7 8 3 3 11 22 25 24 27
32 35 35 33 31 30 26 22 19 15 11 7 10 12 10 13 12 8 13 4 6 10 4 1 3 1 1 3 3 3 4 7 4 8 7 5 7 11 28 27 24 29 23 33
34 36 36 36 36 32 32 28 26 19 6 3 4 10 12 18 15 9 5 5 7 8 6 5 2 2 4 4 6 5 4 7 4 2 9 12 22 23 30 30 34 28 34 36
35 37 37 37 36 37 34 31 30 20 9 3 1 5 11 13 16 13 10 4 10 9 8 4 3 3 9 4 6 6 6 4 4 6 15 16 27 26 25 26 23 30 35 34
34 36 38 35 34 38 36 27 31 22 3 7 2 4 10 17 21 15 10 7 7 6 4 2 3 3 2 3 1 10 10 15 6 10 24 12 20 32 31 25 31 34 36 31
34 35 38 36 34 37 36 8 25 28 9 3 1 2 7 14 19 22 18 17 12 11 6 4 5 8 8 3 6 12 17 29 31 24 36 32 36 35 35 32 35 35 33 27
32 37 38 34 34 33 26 7 14 32 19 2 2 2 4 10 14 12 10 13 11 8 6 5 9 9 9 4 16 33 22 25 28 30 30 29 33 30 29 28 31 33 30 22
34 37 35 40 36 26 15 11 23 25 13 3 2 2 1 8 5 4 7 7 9 6 6 2 2 3 6 6 14 27 23 19 23 30 34 37 37 27 28 30 23 21 14 24
42 46 39 36 29 11 14 26 25 16 4 6 2 2 3 7 4 4 4 3 1 3 3 3 4 3 6 11 18 23 24 18 15 18 19 20 22 25 19 15 16 8 10 8
35 41 14 6 13 34 32 13 4 4 1 1 1 3 2 5 2 2 4 2 1 2 4 3 3 4 10 16 26 30 21 14 12 17 14 10 9 8 8 9 7 6 7 10
21 6 7 37 32 9 4 6 4 3 1 6 6 12 3 5 3 2 3 3 2 2 3 2 2 3 2 15 16 11 2 4 6 2 6 7 9 8 8 6 6 6 6 8
7 22 26 18 4 4 3 2 3 3 4 6 5 7 6 5 3 3 3 2 2 5 2 2 3 2 9 11 11 6 7 4 4 5 3 3 3 2 2 1 4 6 7 8
28 10 4 4 2 4 4 5 2 2 5 9 7 2 7 4 4 4 3 3 4 0 2 3 2 4 8 9 8 7 6 7 9 10 10 11 11 9 8 7 8 8 8 9
4 4 3 3 3 3 4 3 3 6 5 17 15 5 3 3 2 2 3 4 1 3 2 3 1 5 7 7 8 9 10 10 11 12 11 10 10 10 10 11 11 10 10 9
1 3 3 3 4 1 0 5 2 4 10 21 8 5 4 2 2 3 1 2 3 3 3 2 1 3 4 5 6 7 8 8 8 8 8 8 8 8 9 10 10 11 10 10
1 0 3 3 2 2 1 4 4 9 15 16 3 3 3 2 3 3 5 2 4 3 2 2 3 2 3 3 4 6 7 7 7 6 7 8 8 8 9 9 9 10 11 11
2 1 1 0 1 3 3 5 3 10 18 2 3 4 5 2 2 3 3 4 2 1 5 4 2 3 1 2 3 4 5 5 7 5 5 8 8 7 5 6 8 9 10 11
Wind_Direction
168 165 165 162 162 163 161 145 114 160 181 128 154 140 156 137 117 114 100 97 123 171 114 301 282 241 129 142 151 150 158 197 265 282 299 108 99 121 68 311 319 262 247 287
161 167 169 171 170 168 158 97 104 154 168 156 162 190 133 97 127 140 144 132 146 101 117 178 252 207 133 156 167 159 169 190 309 285 118 183 124 236 170 219 260 273 307 299
168 170 173 174 175 168 158 118 127 141 190 168 132 130 133 153 193 164 146 124 94 101 156 167 229 221 192 203 220 185 156 190 207 212 240 260 283 274 272 261 257 257 259 282
155 167 169 173 175 171 158 111 141 156 169 182 114 113 157 177 145 77 161 118 167 161 199 176 220 216 233 229 219 209 166 221 213 247 260 274 273 278 279 247 250 248 263 268
168 168 169 167 179 172 167 128 134 115 160 148 128 179 192 161 150 137 194 155 181 188 199 194 182 142 181 222 210 159 193 223 125 277 268 270 275 274 268 263 256 254 261 268
169 182 187 181 181 181 156 144 141 146 156 148 172 192 164 169 120 203 161 179 136 216 231 227 246 223 158 207 193 179 159 162 83 261 324 337 286 251 262 275 276 263 266 285
212 195 190 192 189 192 169 165 146 112 135 161 192 160 187 175 184 173 136 184 170 248 229 141 224 258 259 255 234 195 161 146 145 274 325 253 252 295 282 285 296 10 349 329
214 218 199 196 194 201 201 168 162 126 120 157 148 162 167 173 200 186 163 183 198 163 136 82 53 318 281 229 210 208 199 139 226 235 231 280 290 26 344 321 304 34 330 322
212 214 212 207 199 210 208 184 167 133 113 192 176 164 165 149 165 166 194 205 178 164 95 94 155 213 197 272 300 163 154 196 167 166 238 257 199 299 321 314 266 360 337 324
210 210 209 205 204 198 202 159 168 141 115 155 148 155 181 180 137 138 140 150 163 184 101 95 149 224 214 216 200 179 119 157 211 230 244 273 228 286 356 266 314 318 308 305
210 205 205 201 198 200 199 202 207 167 120 157 179 187 149 153 168 136 172 102 131 81 117 137 205 160 232 300 243 190 189 166 200 154 183 274 201 269 156 229 287 291 294 295
210 202 200 199 196 197 190 176 174 176 159 150 173 195 197 194 179 178 181 196 171 160 102 69 103 99 193 194 244 207 233 192 190 180 214 236 236 256 290 284 275 294 285 302
203 200 196 197 194 192 194 190 180 179 157 157 204 211 204 200 177 181 200 217 165 174 131 145 153 181 141 189 233 227 250 190 222 105 254 247 267 278 286 284 286 287 304 310
194 195 192 193 194 186 194 187 189 173 141 139 228 211 230 204 178 210 213 180 167 150 162 124 143 173 192 224 249 212 199 160 203 248 270 277 272 276 284 288 284 287 309 311
184 185 186 190 192 178 188 192 189 179 119 174 177 184 203 208 205 207 212 215 191 164 138 119 205 199 204 219 274 251 196 240 214 242 252 240 266 287 291 283 289 294 307 309
175 176 180 184 181 173 175 145 187 186 184 81 89 184 187 198 204 218 233 227 220 210 184 207 225 221 206 242 247 257 251 244 240 247 255 260 276 284 282 288 292 298 303 293
173 174 172 174 174 169 163 167 177 179 199 335 347 353 150 182 190 201 210 218 215 221 239 222 235 228 215 238 263 273 263 267 263 265 263 268 267 269 279 287 290 301 305 289
163 159 162 167 171 150 136 123 151 165 169 201 109 272 50 162 149 136 174 173 202 228 225 221 212 233 211 253 257 272 278 271 267 254 252 254 263 268 269 286 292 295 292 292
143 148 149 136 118 103 124 139 141 152 157 143 156 163 225 165 115 120 125 151 161 242 237 221 203 208 227 250 298 304 292 258 244 271 265 275 257 269 280 279 271 272 304 313
133 131 114 86 115 123 126 121 117 147 205 157 194 201 235 159 145 97 107 145 242 254 244 205 232 253 283 315 308 290 286 249 264 271 267 242 238 251 270 261 279 271 304 322
121 78 79 126 128 128 103 127 145 148 192 207 217 196 158 181 114 168 193 178 197 254 263 182 244 262 330 332 2 13 39 223 270 286 295 264 251 250 253 284 332 357 358 352
97 125 123 114 105 69 85 100 140 192 211 176 169 200 181 155 160 108 184 174 165 248 173 237 264 269 340 341 348 5 8 2 1 1 29 92 122 156 267 5 31 34 27 24
116 115 101 131 104 74 154 178 184 207 181 168 159 140 156 139 173 85 133 215 229 327 235 245 227 17 355 348 343 9 1 30 65 77 72 67 73 78 71 59 47 34 31 32
80 118 108 174 183 229 192 184 181 209 168 160 147 113 125 125 104 149 180 235 251 253 230 248 293 27 2 20 29 52 58 60 66 68 67 64 63 63 64 57 49 40 37 34
86 152 182 190 205 174 6 198 195 170 162 159 118 89 118 121 122 191 193 258 253 216 212 231 161 69 48 45 45 50 51 49 48 46 47 48 50 53 56 51 45 40 37 36
154 30 87 125 79 304 181 187 223 186 172 160 137 130 81 205 161 172 214 231 234 231 166 192 174 96 86 76 48 31 22 18 16 26 37 39 44 48 46 39 34 31 27 24
134 271 274 208 159 144 158 197 189 168 162 153 130 132 197 117 186 226 196 215 264 218 139 150 163 122 103 91 37 11 10 8 6 20 47 35 29 34 26 22 22 16 15 15